STARLINK-3740, 52265

Orbit data source: Space-Track

STARLINK-3740, 52265 is a payload satellite owned by SpaceX/Seattle (US) in LEO that was launched on Thu, 21 Apr 2022 UTC via an FALCON 9 launch vehicle from the Air Force Eastern Test Range (AFETR). Payload-class satellites include a variety of spacecraft equipped with specific instruments for various scientific and technological missions. These include communications satellites like Starlink; space stations such as the ISS; scientific satellites like the Hubble; Earth observation satellites from companies like Planet Labs, Umbra, and HawkEye 360; GPS; miniature CubeSats for education and research; and military/defense satellites.

Loading next visibility...
Identifier
52265, 2022-041E
Orbit
LEO
Country
Flag of USUS
Related business
Manufacturer
SpaceX/Seattle
Mission
Operational Commercial Communications
Bus & Motor
STARLINK, Unknown motor
Mass
297 kg wet, ~275 kg dry
Launch date (UTC)
2022-04-21 (4 years ago)
Launch vehicle
FALCON 9
Launch site
Air Force Eastern Test Range (AFETR)
Object type
Payload
Rocket body
Debris
Shape & HBR
Box + 1 Pan, 10.1 m
Radar Cross Section
11.087 m², Large (>1 m²)

Expand to show TLE details & history
Last TLE update: 15 hours ago

TLE from 15 hours ago
0 STARLINK-3740
1 52265U 22041E   26175.28395252  .00098257  00000-0  59753-2 0  9998
2 52265  53.1607 350.4517 0001045  58.0964 302.0129 15.09633217230459
Epoch: 2026-06-24T06:48Z
TLE epoch observation values (Epoch: 2026-06-24T06:48:53.497Z)
Latitude
-0.00006°
Longitude
-24.21463°
Altitude
537.829 km
Speed
7.595 km/s
True Right ascension
23h 21m 48s
True Declination
0° 00' 00"
Sunlit
Object was in daylight at epoch
Visualization orbit readout
Latitude
Unknown
Longitude
Unknown
Altitude
Unknown
Speed
Unknown
Apparent Right ascension
Unknown
Apparent Declination
Unknown
Sunlit
N/A
Visualization observer readout
Local Sidereal Time
08:50:43
Azimuth
Unknown
Elevation
Unknown
Doppler factor
Unknown
Orbital elements
Apogee altitude
538.297 km
Perigee altitude
536.851 km
Semi-major axis
6,915.711 km
Eccentricity
0.0001
Inclination
53.1607°
RAAN
350.4517°
Arg. of periapsis
58.0964°
True anomaly
302.00275°
Mean anomaly
302.0129°
Eccentric anomaly
302.00782°
Mean motion
3.77388 °/min
Orbital period
95.39 mins
BSTAR
0.0059753
Loading maneuver chart data...
Computing Atmospheric mass density...
Loading historical data...
Loading historical data...
Loading historical data...
Loading historical data...
Loading historical data...
Loading historical data...
Loading historical data...

Documentation

Showing up to 5 results
|